Location: Fernhill
(41.0167°S, 175.6333°E)
Time: 14:54:37
(UTC+00:00)

Meteor 2-6 Rocket - Pass Details

Date: 22 February 2026
Orbit: 804 x 913 km, 81.3° (Epoch: 7 March)

Event Time Altitude Azimuth Distance (km) Brightness Sun altitude
Exits shadow 08:39:54 21° 88° (E) 1,904 5.5 -16.3°
Maximum altitude 08:40:21 21° 95° (E) 1,898 5.6 -16.4°
Drops below altitude 10° 08:44:40 10° 141° (SE) 2,608 6.7 -17.1°
Sets 08:47:44 0° 156° (SSE) 3,569 7.5 -17.6°
